This demonstration page uses our WeatherBlox Daily Observations layout. Learn more.

Left ArrowRight Arrow

36.17497, -115.13722

Hourly Observations for November 21, 2021

Temp ( °F °C ) Dew Point ( °F °C ) Humidity (%) Winds ( mph kmh ) Pressure ( in mb ) Visibility ( mi km ) Precip ( " mm )
12:53 am 00:53 Clear 60 15.6 25 -3.9 26 26 NNW 10 17 30.29 1026 10 16 0.00 0.00
1:53 am 01:53 Clear 59 15 26 -3.3 28 28 N 9 15 30.31 1026 10 16 0.00 0.00
2:53 am 02:53 Clear 57 13.9 26 -3.3 30 30 N 12 19 30.32 1027 10 16 0.00 0.00
3:53 am 03:53 Clear 55 12.8 26 -3.3 33 33 NNW 12 19 30.33 1027 10 16 0.00 0.00
4:53 am 04:53 Clear 54 12.2 25 -3.9 33 33 N 12 19 30.35 1028 10 16 0.00 0.00
5:53 am 05:53 Clear 54 12.2 24 -4.4 31 31 NNW 14 22 30.37 1028 10 16 0.00 0.00
6:53 am 06:53 Sunny 53 11.7 24 -4.4 32 32 NNW 14 22 30.40 1030 10 16 0.00 0.00
7:53 am 07:53 Sunny 56 13.3 24 -4.4 29 29 N 14 22 30.42 1030 10 16 0.00 0.00
8:53 am 08:53 Sunny 59 15 23 -5 25 25 NNW 14 22 30.44 1031 10 16 0.00 0.00
9:53 am 09:53 Sunny 62 16.7 21 -6.1 21 21 N 10 17 30.44 1031 10 16 0.00 0.00
10:53 am 10:53 Sunny 64 17.8 19 -7.2 18 18 N 7 11 30.42 1030 10 16 0.00 0.00
11:53 am 11:53 Sunny 66 18.9 19 -7.2 16 16 NNE 5 7 30.38 1029 10 16 0.00 0.00
12:53 pm 12:53 Sunny 68 20 16 -8.9 13 13 VRB 3 6 30.35 1028 10 16 0.00 0.00
1:53 pm 13:53 Sunny 69 20.6 15 -9.4 12 12 NNW 6 9 30.33 1027 10 16 0.00 0.00
2:53 pm 14:53 Sunny 69 20.6 16 -8.9 13 13 NNE 3 6 30.33 1027 10 16 0.00 0.00
3:53 pm 15:53 Sunny 69 20.6 15 -9.4 12 12 NNE 5 7 30.33 1027 10 16 0.00 0.00
4:53 pm 16:53 Clear 66 18.9 15 -9.4 14 14 N 7 11 30.34 1027 10 16 0.00 0.00
5:53 pm 17:53 Clear 65 18.3 14 -10 14 14 NNW 9 15 30.35 1028 10 16 0.00 0.00
6:53 pm 18:53 Clear 60 15.6 14 -10 16 16 NNW 7 11 30.37 1028 10 16 0.00 0.00
7:53 pm 19:53 Clear 58 14.4 13 -10.6 17 17 NNW 7 11 30.37 1028 10 16 0.00 0.00
8:53 pm 20:53 Clear 60 15.6 13 -10.6 16 16 NNW 6 9 30.36 1028 10 16 0.00 0.00
9:53 pm 21:53 Clear 56 13.3 12 -11.1 17 17 WNW 5 7 30.37 1028 10 16 0.00 0.00
10:53 pm 22:53 Clear 55 12.8 12 -11.1 18 18 Calm 30.37 1028 10 16 0.00 0.00
11:53 pm 23:53 Clear 51 10.6 15 -9.4 24 24 WSW 3 6 30.36 1028 10 16 0.00 0.00

Powered by AerisWeather